Вернуться в каталог

ARIANE 1 DEB

LostHEO
NORAD 26534·DEBRIS·🇫🇷 France

Запущен Dec 24, 1979 с Guiana Space Centre

Loading…

Ближайшие Пролёты (ближайшие 24 часа)

TLE

УстаревшееSource: Space-Track

Эпоха: May 3, 2024, 07:27 UTC

1 26534U 79104Q   24124.31051666  .00001528  00000-0  51610-2 0  9993
2 26534  15.6415 128.7555 7010031 128.5515 317.8528  2.51960688216824

Отслеживайте ARIANE 1 DEB в реальном времени с AllMySat

Download on the App Store